sat.trackr.live / text

‹ back to catalog

KUIPER-00126

NORAD 65955 · 2025-228J

PAYLOAD ACTIVE UNKNOWN

§ Identity

Operator
Country
US
Launch date
2025-10-14
Launch site
AFETR
Launch vehicle
Mass (kg)
RCS (m²)

External: N2YO · Heavens-Above · Gunter

§ Orbital elements

Epoch: 2026-05-25T00:54:29.105568Z

Period
97.30 min
Inclination
51.9012°
Eccentricity
0.0000740
Mean motion
14.79932375 rev/d
Perigee alt
629.0 km
Apogee alt
630.1 km
Semi-major
7,007.7 km
B*
4.1845e-5
RAAN
22.9847°
Arg perigee
103.5549°
Mean anomaly
256.5496°
Rev number
3,453

§ Raw data

KUIPER-001261 65955U 25228J   26145.03783687  .00000098  00000+0  41845-4 0  99912 65955  51.9012  22.9847 0000740 103.5549 256.5496 14.79932375 34532

JSON: /api/v1/satellites/65955 · /tle

For live sub-satellite position, see the globe view (requires WebGL).

§ Visibility from observer

Set your observer location to see the next 7 days of passes ≥ 10°. The values pass through the URL so the page stays shareable.

No JS? Fill the form by hand. The geolocation button needs JavaScript.